RH
91 87 84 79 83 83 77 82 83 72 72 74 75 69 62 69 73 61 57 58 59 59 72 77 85 94 91 77 65 58 76 89 84 76 60 56 65 58 68 69 61 56 79
85 89 85 84 84 83 79 78 76 75 76 78 79 77 73 73 74 70 56 59 62 72 84 90 85 77 74 76 75 66 54 69 87 81 74 64 66 66 63 64 65 61 55
88 93 89 84 85 83 83 82 80 80 82 84 83 83 83 82 78 76 69 59 69 80 86 88 84 75 65 64 68 67 60 51 60 81 81 82 84 83 85 53 45 57 62
95 94 90 87 87 88 89 90 90 90 89 88 89 88 89 90 90 90 84 76 62 73 77 82 81 79 74 73 63 55 61 57 51 58 70 83 84 83 92 78 56 50 49
99 95 93 94 94 96 94 92 91 91 92 92 92 91 92 90 90 92 92 90 85 79 68 74 83 87 87 85 82 76 55 62 64 55 61 72 81 71 80 93 81 64 48
99 96 95 94 93 91 89 88 87 86 87 87 87 87 88 89 91 92 92 95 94 93 88 84 75 73 80 89 86 84 82 61 63 69 62 64 76 68 77 78 80 69 58
83 84 82 78 71 66 61 58 60 61 65 66 70 73 78 79 81 78 78 82 86 88 90 90 90 86 81 81 82 86 86 84 72 61 70 66 64 63 79 92 82 79 72
60 56 53 49 46 44 41 40 40 40 41 39 38 41 45 46 51 51 52 60 72 83 88 90 91 91 88 87 85 82 84 88 85 80 63 57 63 63 78 98 90 82 87
43 43 41 38 35 32 30 30 29 30 32 33 33 34 36 38 40 40 41 44 50 57 71 82 91 93 93 94 91 87 86 83 84 83 82 79 52 55 67 89 91 89 86
36 31 28 26 25 26 26 28 28 30 32 34 36 36 36 37 36 37 37 35 35 41 47 51 61 70 77 78 89 93 94 91 87 86 83 80 80 78 49 67 87 95 97
32 30 30 29 29 28 28 28 30 31 33 36 37 38 38 39 40 40 42 43 41 40 40 43 46 58 67 70 80 85 90 96 96 92 90 88 86 79 75 75 70 91 95
39 35 32 31 30 30 31 34 35 36 37 39 42 44 46 50 53 54 55 54 52 50 46 44 44 47 50 58 62 68 78 87 90 91 89 90 90 88 87 82 82 79 66
41 38 35 33 34 35 37 39 40 44 48 50 54 57 62 63 62 61 62 61 62 61 58 53 48 46 48 49 51 54 57 68 76 78 77 86 90 90 95 90 83 81 84
43 41 39 38 40 40 41 42 48 55 58 62 65 66 66 65 64 66 66 70 70 73 71 69 65 63 57 53 52 52 53 52 67 80 78 78 82 82 80 83 85 86 86
44 43 42 42 43 45 44 48 55 61 64 69 70 71 72 71 70 72 71 71 71 72 78 80 78 75 71 66 59 55 54 54 53 75 84 81 79 72 64 67 81 86 91
44 44 43 44 48 48 48 55 61 66 71 73 73 73 73 72 72 73 71 69 68 72 76 80 79 81 79 75 69 66 60 57 56 54 55 61 66 67 69 68 70 93 93
43 42 44 47 49 48 49 53 60 65 71 72 72 67 70 73 74 74 73 70 70 71 72 72 71 72 74 76 74 71 70 67 62 59 57 56 56 56 57 56 54 58 75
41 40 47 49 47 46 50 52 55 56 60 67 64 62 68 68 70 72 72 74 74 76 78 75 75 72 75 84 71 68 73 69 68 67 67 66 65 66 66 67 66 78 88
41 42 47 46 46 48 51 55 55 56 58 63 62 63 67 69 66 71 71 73 69 73 82 85 83 85 89 86 73 64 62 62 64 73 77 75 76 78 78 80 87 92 100
44 45 44 47 51 51 52 55 56 59 61 65 66 68 71 70 59 64 62 63 63 67 80 88 90 89 88 83 78 69 81 82 78 71 67 65 68 70 72 73 74 77 83
47 44 46 48 49 50 51 50 51 56 58 65 69 68 69 69 63 51 49 58 64 73 84 87 86 87 85 81 78 75 76 76 74 67 68 66 71 95 84 82 83 80 79
45 45 47 46 48 50 49 52 56 62 61 65 66 64 59 60 58 50 44 51 64 71 80 85 85 83 82 79 81 94 94 78 76 75 70 71 73 84 98 92 81 77 77
49 46 45 45 50 53 53 55 54 58 56 56 55 52 50 50 48 48 45 43 55 66 75 83 85 83 82 76 78 83 95 82 80 73 79 75 75 83 94 91 86 75 69
50 47 45 48 52 52 48 49 51 52 55 53 58 55 50 46 43 44 42 40 47 56 62 70 80 87 85 84 75 75 74 78 88 93 76 78 79 84 86 84 83 77 68
49 47 48 49 50 51 48 50 53 52 52 51 55 51 46 41 39 40 45 43 43 50 53 60 71 81 91 96 89 86 79 74 84 94 95 90 79 89 96 91 80 72 59
53 52 50 48 48 51 52 51 52 53 50 50 48 50 46 41 38 37 43 44 37 36 42 45 51 75 82 94 90 88 94 97 93 93 90 77 75 83 99 99 85 64 49
Wind_Speed
10 12 9 9 8 7 5 3 3 4 5 5 6 6 6 7 7 8 7 6 5 4 4 5 5 5 4 4 5 6 4 4 4 3 4 4 4 5 5 5 5 4 4
12 11 10 8 8 6 6 5 5 5 5 6 6 6 6 7 7 7 6 5 5 5 4 4 4 4 3 3 3 5 4 1 1 1 2 3 3 3 3 3 3 3 2
11 11 10 8 7 6 5 5 4 4 5 5 5 5 6 6 6 6 6 4 3 2 3 5 2 4 4 4 4 4 4 3 2 3 2 2 0 1 3 4 3 3 2
13 13 11 8 7 6 5 4 4 4 4 4 4 5 5 6 6 7 6 5 4 4 3 3 5 5 5 6 6 6 5 4 4 5 6 6 4 5 5 4 3 3 3
16 14 12 10 9 7 6 5 5 4 4 4 4 5 6 7 7 7 7 7 7 7 7 7 6 9 8 8 8 7 7 6 6 6 7 8 8 7 9 9 5 4 4
16 13 11 9 8 7 5 4 4 4 4 4 4 5 5 6 6 7 7 7 8 9 10 10 9 10 10 10 10 10 9 8 8 9 9 9 10 9 10 10 8 7 5
16 14 12 9 8 6 4 4 3 2 3 4 5 5 6 7 7 8 8 9 9 10 11 12 12 13 13 12 12 12 11 10 10 11 11 11 12 12 10 11 11 9 8
15 13 11 9 7 5 4 4 4 4 5 6 6 7 7 7 8 9 9 9 9 10 10 12 12 12 14 15 14 14 13 13 13 13 13 13 13 14 13 11 14 13 11
13 11 9 7 5 3 3 5 5 5 6 6 7 7 7 8 9 10 10 11 11 11 11 11 13 13 14 14 15 15 14 15 16 16 15 15 14 15 17 15 13 14 14
11 9 7 5 4 3 4 5 5 5 6 7 8 8 9 10 11 12 13 13 13 14 14 13 13 14 14 16 15 14 15 16 17 19 18 18 17 17 18 19 18 15 16
10 9 7 6 5 5 5 5 5 5 5 7 8 9 10 11 11 12 13 13 14 14 15 15 14 14 13 13 13 14 15 16 18 19 20 21 21 21 21 20 20 20 18
8 8 6 5 6 6 6 5 6 6 6 7 8 9 10 10 11 12 12 12 13 13 13 14 14 14 14 13 12 12 13 14 14 16 18 20 21 22 22 22 22 22 23
7 6 6 5 5 5 6 6 7 7 7 8 9 10 10 11 12 12 13 14 15 15 14 14 13 14 14 13 12 11 11 13 15 15 16 15 16 19 18 18 19 21 22
7 5 4 4 5 6 6 6 7 7 9 9 10 10 11 13 14 14 15 15 15 16 16 16 16 15 14 13 13 13 11 11 12 13 14 12 12 13 16 16 15 16 20
6 4 3 3 4 5 6 7 7 8 8 9 9 10 12 14 14 14 14 14 15 15 16 17 16 16 15 14 13 13 12 11 10 11 12 12 13 13 14 15 14 14 14
6 4 2 2 2 4 6 7 7 8 8 8 10 12 13 14 14 14 15 15 15 15 15 15 16 16 15 13 13 12 11 11 10 9 8 9 9 10 10 12 12 12 12
6 4 2 1 1 3 5 6 6 7 7 8 10 12 13 13 14 15 15 15 16 15 15 15 15 13 14 13 13 11 10 9 8 7 9 10 11 11 11 11 12 12 11
8 6 4 1 2 3 4 5 5 6 7 8 10 11 12 13 15 15 15 16 17 16 15 16 17 17 15 15 18 13 11 10 9 8 8 8 7 6 4 5 7 7 8
10 8 5 3 3 3 3 4 5 5 6 6 9 10 11 12 14 14 15 15 17 16 16 17 16 17 15 18 19 15 14 9 6 3 8 11 12 12 11 9 5 3 9
11 8 6 5 4 3 4 4 5 4 5 5 8 9 10 11 14 14 14 15 17 17 17 17 17 17 14 21 18 13 13 15 18 17 16 16 15 12 11 11 10 10 10
12 10 8 7 5 5 5 5 4 4 5 5 6 8 9 10 13 14 15 14 15 17 16 15 14 15 16 22 15 13 6 14 13 14 15 17 17 13 12 14 14 12 10
14 12 10 7 6 6 5 4 4 5 5 6 6 7 9 9 11 13 14 14 13 14 14 13 12 12 10 15 11 4 3 3 6 7 13 16 17 12 12 13 13 14 14
18 15 11 9 8 6 5 5 6 7 6 6 6 7 8 9 10 12 13 13 12 12 12 11 9 8 8 8 9 5 3 2 9 2 8 14 16 14 10 10 14 15 15
19 14 12 9 7 6 7 7 8 8 8 7 10 9 10 10 10 11 11 11 11 11 11 10 9 8 7 7 8 9 6 6 3 4 1 7 12 11 6 7 11 15 18
18 16 10 8 8 8 9 10 11 12 12 11 12 12 12 11 11 11 11 11 11 11 10 10 9 7 5 3 4 5 6 9 5 2 4 7 11 11 6 5 10 13 16
17 12 9 9 9 10 12 12 14 15 15 15 15 15 14 13 12 12 11 11 10 10 9 9 8 7 5 3 5 6 4 4 5 3 2 8 9 8 6 6 14 16 17
Wind_Direction
154 155 149 143 138 131 125 126 102 84 73 63 56 50 45 41 36 39 46 49 56 64 56 44 53 58 45 40 37 38 53 76 82 79 91 95 75 54 57 53 49 62 85
154 152 147 138 137 128 113 103 93 75 64 56 46 37 35 32 30 30 35 46 57 54 40 22 21 18 10 4 10 14 20 30 141 77 98 107 78 53 34 19 6 24 77
144 141 140 137 131 121 107 94 83 67 54 46 42 28 24 18 16 17 18 18 25 24 12 24 326 345 351 342 332 331 335 327 276 255 240 226 310 354 347 335 333 321 326
138 138 132 128 120 114 104 90 70 52 39 19 14 8 360 356 352 350 351 352 340 319 313 328 305 311 316 324 328 323 314 306 288 270 259 254 261 289 285 293 309 309 297
131 133 126 120 116 110 100 89 79 59 44 21 14 3 350 338 333 327 322 324 327 320 308 294 286 290 294 301 304 310 308 298 294 280 268 254 267 282 270 245 255 268 287
123 122 118 115 109 105 99 81 60 35 15 359 353 350 341 340 346 342 339 327 312 305 303 299 293 286 287 287 294 296 298 298 287 283 277 263 262 278 280 255 250 249 265
126 125 122 119 110 103 91 77 62 23 346 343 336 337 331 330 334 332 330 324 316 308 300 294 292 292 290 287 285 285 286 291 292 288 282 277 270 270 280 263 244 252 253
125 120 115 110 107 92 65 47 31 10 353 355 350 347 340 337 335 333 336 335 328 319 305 303 299 295 292 292 288 286 282 281 283 285 286 281 278 269 272 282 260 249 249
115 118 111 104 99 74 40 26 16 7 359 350 346 343 339 335 330 327 326 326 326 322 317 311 303 296 293 291 288 284 282 280 280 282 282 282 280 274 268 270 275 259 251
112 105 97 91 78 53 22 9 4 355 349 339 336 335 332 327 325 323 320 316 311 310 311 312 307 305 304 294 291 282 282 281 276 281 285 285 285 280 274 267 267 265 257
103 95 86 72 59 44 27 12 5 351 346 342 339 341 336 335 333 331 329 324 317 309 303 300 303 307 307 303 296 289 278 275 278 281 285 288 287 281 277 272 268 264 260
106 92 79 64 49 41 31 20 18 12 3 1 359 358 358 357 355 353 348 344 339 332 322 309 302 302 308 312 311 301 291 283 280 283 286 286 285 286 284 281 276 272 269
118 95 76 61 51 38 27 21 22 22 26 23 19 19 16 13 9 4 1 358 357 352 346 337 324 310 304 308 311 313 305 291 285 285 288 295 297 296 296 285 276 275 275
130 107 81 61 44 35 25 21 27 24 26 22 25 20 12 7 6 7 5 6 3 2 359 358 353 343 330 312 305 307 313 313 296 289 292 295 298 295 301 300 283 286 272
144 124 88 57 41 34 21 25 26 24 26 25 17 9 3 0 2 2 4 4 4 3 2 2 1 -0 355 345 328 307 301 311 314 300 294 298 303 307 306 312 311 302 287
161 147 118 66 41 30 25 30 33 35 30 15 6 0 355 355 357 357 357 359 0 1 360 360 1 2 359 356 350 339 316 302 300 306 312 308 306 307 308 308 311 318 315
172 173 184 136 19 16 18 21 22 17 7 360 357 353 354 358 359 356 355 358 1 358 356 356 353 356 351 352 353 349 336 324 311 299 302 304 306 311 315 308 305 304 309
195 201 199 212 328 347 2 9 4 2 359 360 360 1 4 2 1 0 0 1 0 358 1 4 3 357 353 346 346 346 341 328 314 310 314 319 322 328 330 319 307 346 358
207 213 210 239 279 317 333 341 348 359 4 3 3 10 11 12 8 8 7 5 3 2 5 7 9 7 8 344 346 344 340 340 333 0 77 75 67 67 67 60 44 49 61
211 215 229 241 259 293 306 319 325 327 342 351 358 3 4 8 9 9 8 6 6 7 9 13 9 9 8 355 347 355 61 72 89 83 65 61 56 48 39 34 40 38 40
211 219 229 239 263 284 302 310 303 299 320 336 343 350 353 358 3 5 7 6 8 12 15 20 12 6 3 359 358 355 58 83 73 55 49 44 43 37 22 25 22 17 17
215 221 228 243 258 264 275 287 298 306 310 320 332 342 343 347 354 357 0 3 2 3 12 22 18 11 11 11 359 346 355 318 337 34 46 42 38 32 26 27 29 28 21
213 219 229 243 250 260 279 292 301 302 305 308 311 319 328 336 343 346 350 352 353 353 357 359 5 15 4 12 12 38 3 338 335 347 53 33 21 30 36 25 28 28 22
214 218 230 241 254 269 280 283 285 290 294 301 308 313 319 322 328 331 335 338 339 340 343 344 343 352 3 2 358 2 337 302 317 319 308 18 9 27 38 20 14 17 14
208 216 228 245 257 270 280 282 283 286 285 291 294 299 301 301 308 312 317 324 326 330 334 332 337 348 352 349 5 338 333 318 295 292 312 346 353 0 14 27 22 21 17
204 213 230 252 263 269 271 273 277 277 283 284 287 288 289 292 295 297 297 303 310 315 317 321 328 329 337 345 348 348 321 329 332 322 285 319 324 339 358 3 20 17 13